User: anonymous
Location: Saint Peter Port
(49.4500°N, 2.5330°W)
Time: 22:53:18
(UTC+01:00)
Language:

Cosmos 2242 Rocket - Orbit

View from above orbital plane
View from above orbital plane
View from above satellite
View from above satellite

Ground track
Ground track

The orbit data is extracted from the following two-line orbital elements,

1 22627U 93024B   14105.59723436  .00000419  00000-0  55157-4 0  2946
2 22627 082.5209 095.7097 0024783 154.8464 344.4261 14.77573331131022
Epoch (UTC): 15 April 2014 14:20:01
Eccentricity: 0.0024783
inclination: 82.5209°
perigee height: 619 km
apogee height: 654 km
right ascension of ascending node: 95.7097°
argument of perigee: 154.8464°
revolutions per day: 14.77573331
mean anomaly at epoch: 344.4261°
orbit number at epoch: 13102

The dashed part of the orbit path shows where the satellite is in the earth's shadow,  

DLR